Salem, OR

7:56 AM PDT on March 29, 2017 (GMT -0700)
McNary

Weather History for KSLE - April, 2014

Change the Weather History Date:

Saturday, April 5, 2014

  Actual Average Record
Temperature  
Mean Temperature 52 °F 49 °F  
Max Temperature 56 °F 59 °F 77 °F (1952)
Min Temperature 48 °F 39 °F 26 °F (1975)
Degree Days  
Heating Degree Days 13 16  
Month to date heating degree days 70 80  
Since 1 July heating degree days 3842 3883  
Cooling Degree Days 0 0  
Month to date cooling degree days 0 0  
Year to date cooling degree days 0 0  
Growing Degree Days 2 (Base 50)    
Moisture  
Dew Point 47 °F    
Average Humidity 85    
Maximum Humidity 93    
Minimum Humidity 77    
Precipitation  
Precipitation 0.06 in 0.11 in 0.90 in (1954)
Month to date precipitation 0.26 0.55  
Year to date precipitation 16.85 15.06  
Sea Level Pressure  
Sea Level Pressure 30.08 in    
Wind  
Wind Speed 11 mph (South)    
Max Wind Speed 21 mph    
Max Gust Speed 27 mph    
Visibility 9 miles    
Events Rain    
T = Trace of Precipitation, MM = Missing Value Source: NWS Daily Summary

Daily Weather History Graph

Daily Weather History Graph

Search for Another Location

Airport or City:

Trip Planner

Search our weather history database for the weather conditions in past years. The results will help you decide how hot, cold, wet, or windy it might be!

Date:

Astronomy

Apr. 05, 2014 Rise Set
Actual Time 6:45 AM PDT 7:44 PM PDT
Civil Twilight 6:15 AM PDT 8:14 PM PDT
Nautical Twilight 5:39 AM PDT 8:50 PM PDT
Astronomical Twilight 5:02 AM PDT 9:28 PM PDT
Moon 10:48 AM PDT (4/5) 1:08 AM PDT (4/5)
Length of Visible Light 13h 59m
Length of Day
12h 59m
Waxing Crescent, 35% of the Moon is Illuminated
Apr 5
Waxing Crescent
Apr 7
First Quarter
Apr 15
Full
Apr 22
Last Quarter
Apr 28
New

Hourly Weather History & Observations

Time (PDT) Temp. Dew Point Humidity Pressure Visibility Wind Dir Wind Speed Gust Speed Precip Events Conditions
12:41 AM 48.9 °F 43.0 °F 80% 30.01 in 10.0 mi South 10.4 mph - N/A   Overcast
12:56 AM 48.9 °F 44.1 °F 83% 30.01 in 10.0 mi South 12.7 mph - 0.00 in Rain Light Rain
1:56 AM 48.0 °F 45.0 °F 89% 30.01 in 10.0 mi South 11.5 mph - 0.00 in Rain Light Rain
2:05 AM 48.0 °F 45.0 °F 89% 30.01 in 10.0 mi South 9.2 mph - 0.01 in Rain Light Rain
2:47 AM 48.0 °F 45.0 °F 89% 30.00 in 10.0 mi SSE 9.2 mph - 0.01 in Rain Light Rain
2:56 AM 48.0 °F 45.0 °F 89% 30.01 in 10.0 mi SSE 9.2 mph - 0.02 in Rain Light Rain
3:18 AM 48.0 °F 45.0 °F 89% 30.01 in 10.0 mi South 11.5 mph - 0.00 in Rain Light Rain
3:56 AM 48.0 °F 45.0 °F 89% 30.01 in 7.0 mi South 11.5 mph - 0.00 in   Overcast
4:06 AM 48.0 °F 45.0 °F 89% 30.01 in 9.0 mi South 9.2 mph - N/A   Overcast
4:23 AM 48.0 °F 45.0 °F 89% 30.01 in 10.0 mi South 10.4 mph - N/A   Overcast
4:38 AM 48.0 °F 45.0 °F 89% 30.01 in 10.0 mi South 10.4 mph - N/A   Overcast
4:56 AM 48.0 °F 45.0 °F 89% 30.01 in 10.0 mi South 10.4 mph - N/A   Overcast
5:56 AM 48.9 °F 46.0 °F 90% 30.03 in 10.0 mi South 10.4 mph - 0.01 in Rain Light Rain
6:56 AM 48.9 °F 46.0 °F 90% 30.04 in 10.0 mi South 12.7 mph - 0.01 in Rain Light Rain
7:56 AM 48.9 °F 46.0 °F 90% 30.05 in 5.0 mi South 11.5 mph - 0.00 in   Overcast
8:03 AM 48.9 °F 46.9 °F 93% 30.05 in 5.0 mi South 12.7 mph - N/A   Overcast
8:18 AM 50.0 °F 46.9 °F 89% 30.05 in 7.0 mi South 11.5 mph - N/A   Overcast
8:26 AM 50.0 °F 46.9 °F 89% 30.05 in 9.0 mi South 11.5 mph - N/A   Overcast
8:35 AM 50.0 °F 46.9 °F 89% 30.06 in 8.0 mi South 9.2 mph - N/A   Overcast
8:56 AM 50.0 °F 46.9 °F 89% 30.06 in 10.0 mi South 9.2 mph - N/A   Overcast
9:56 AM 52.0 °F 48.0 °F 86% 30.09 in 10.0 mi South 12.7 mph - N/A   Overcast
10:23 AM 52.0 °F 48.0 °F 86% 30.09 in 10.0 mi South 12.7 mph - N/A   Overcast
10:36 AM 53.1 °F 48.0 °F 83% 30.09 in 10.0 mi South 9.2 mph - N/A   Overcast
10:56 AM 54.0 °F 48.0 °F 80% 30.09 in 10.0 mi South 15.0 mph - N/A   Overcast
11:03 AM 54.0 °F 48.0 °F 80% 30.09 in 10.0 mi South 13.8 mph - N/A   Overcast
11:25 AM 54.0 °F 46.9 °F 77% 30.10 in 10.0 mi South 15.0 mph - N/A   Overcast
11:56 AM 54.0 °F 46.9 °F 77% 30.11 in 10.0 mi South 15.0 mph - 0.00 in Rain Light Rain
12:03 PM 54.0 °F 46.9 °F 77% 30.10 in 10.0 mi South 15.0 mph - 0.00 in   Overcast
12:56 PM 55.0 °F 46.0 °F 72% 30.11 in 10.0 mi South 13.8 mph - 0.00 in   Overcast
1:56 PM 55.0 °F 48.0 °F 77% 30.11 in 10.0 mi South 12.7 mph - 0.00 in   Overcast
2:56 PM 54.0 °F 48.9 °F 83% 30.10 in 5.0 mi South 15.0 mph - 0.00 in Rain Light Rain
3:56 PM 54.0 °F 50.0 °F 86% 30.11 in 4.0 mi South 6.9 mph - 0.01 in Rain Light Rain
4:03 PM 53.1 °F 50.0 °F 89% 30.10 in 7.0 mi South 6.9 mph - 0.00 in Rain Light Rain
4:56 PM 54.0 °F 50.0 °F 86% 30.11 in 10.0 mi SSE 11.5 mph - 0.00 in Rain Light Rain
5:56 PM 54.0 °F 50.0 °F 86% 30.12 in 10.0 mi South 9.2 mph - 0.01 in   Overcast
6:56 PM 55.0 °F 48.9 °F 80% 30.12 in 10.0 mi SSW 11.5 mph - 0.00 in   Overcast
7:56 PM 54.0 °F 48.9 °F 83% 30.12 in 10.0 mi South 6.9 mph - 0.00 in Rain Light Rain
8:54 PM 53.6 °F 48.2 °F 82% 30.14 in 10.0 mi SSW 6.9 mph - 0.00 in   Overcast
8:56 PM 53.1 °F 48.0 °F 83% 30.15 in 10.0 mi SSW 9.2 mph - 0.00 in   Overcast
9:56 PM 52.0 °F 44.1 °F 74% 30.16 in 10.0 mi WSW 11.5 mph - N/A   Overcast
10:56 PM 51.1 °F 44.1 °F 77% 30.17 in 10.0 mi SW 8.1 mph - 0.00 in Rain Light Rain
11:56 PM 50.0 °F 45.0 °F 83% 30.19 in 10.0 mi SE 5.8 mph - 0.01 in Rain Light Rain